TimePDT,TemperatureF,Dew PointF,Humidity,Sea Level PressureIn,VisibilityMPH,Wind Direction,Wind SpeedMPH,Gust SpeedMPH,PrecipitationIn,Events,Conditions,WindDirDegrees,DateUTC
12:58 AM,65.5,35.1,32,29.90,10.0,South,13.8,-,N/A,,Clear,190,2013-03-28 07:58:00
1:58 AM,64.8,36.7,35,29.90,10.0,South,11.5,-,N/A,,Clear,180,2013-03-28 08:58:00
2:58 AM,64.6,37.8,37,29.91,10.0,South,6.9,-,N/A,,Clear,190,2013-03-28 09:58:00
3:58 AM,62.4,38.1,41,29.91,10.0,SW,4.6,-,N/A,,Clear,220,2013-03-28 10:58:00
4:58 AM,61.5,38.1,42,29.88,10.0,WSW,8.1,-,N/A,,Clear,240,2013-03-28 11:58:00
5:58 AM,59.7,38.1,45,29.89,10.0,NNE,2.3,-,N/A,,Clear,30,2013-03-28 12:58:00
6:58 AM,59.0,37.9,46,29.91,10.0,Variable,1.2,-,N/A,,Clear,0,2013-03-28 13:58:00
7:58 AM,60.6,38.3,44,29.94,10.0,NNW,2.3,-,N/A,,Clear,330,2013-03-28 14:58:00
8:58 AM,65.8,37.8,36,29.96,10.0,WSW,2.3,-,N/A,,Clear,240,2013-03-28 15:58:00
9:58 AM,66.9,37.2,34,29.97,10.0,SE,3.5,-,N/A,,Clear,130,2013-03-28 16:58:00
10:33 AM,68.0,37.4,33,30.01,1.2,Calm,Calm,-,N/A,,Haze,0,2013-03-28 17:33:00
10:38 AM,69.8,37.4,31,30.01,1.8,Variable,2.3,-,N/A,,Haze,0,2013-03-28 17:38:00
10:43 AM,69.8,37.4,31,30.01,10.0,ENE,3.5,-,N/A,,Clear,70,2013-03-28 17:43:00
10:58 AM,69.1,37.0,31,29.97,10.0,Calm,Calm,-,N/A,,Clear,0,2013-03-28 17:58:00
11:58 AM,71.1,36.7,28,29.96,10.0,SSE,3.5,-,N/A,,Clear,160,2013-03-28 18:58:00
12:58 PM,73.6,36.1,26,29.94,10.0,West,2.3,-,N/A,,Clear,260,2013-03-28 19:58:00
1:58 PM,74.7,36.0,24,29.92,10.0,Variable,2.3,-,N/A,,Clear,0,2013-03-28 20:58:00
2:58 PM,76.6,35.2,22,29.89,10.0,East,2.3,-,N/A,,Clear,80,2013-03-28 21:58:00
3:58 PM,76.5,35.4,23,29.88,10.0,Variable,5.8,-,N/A,,Partly Cloudy,0,2013-03-28 22:58:00
4:58 PM,76.8,34.5,22,29.88,10.0,SE,5.8,-,N/A,,Clear,140,2013-03-28 23:58:00
5:58 PM,76.1,32.2,20,29.89,10.0,SSW,10.4,-,N/A,,Clear,210,2013-03-29 00:58:00
6:58 PM,74.5,32.9,22,29.90,10.0,SSW,10.4,-,N/A,,Clear,210,2013-03-29 01:58:00
7:58 PM,71.6,32.5,24,29.91,10.0,SSE,4.6,-,N/A,,Clear,150,2013-03-29 02:58:00
8:58 PM,70.0,32.0,25,29.92,10.0,SSE,4.6,-,N/A,,Clear,150,2013-03-29 03:58:00
9:58 PM,68.5,32.2,26,29.94,10.0,North,4.6,-,N/A,,Clear,350,2013-03-29 04:58:00
10:58 PM,65.3,31.1,28,29.96,10.0,Calm,Calm,-,N/A,,Clear,0,2013-03-29 05:58:00
11:58 PM,62.4,31.5,31,29.97,10.0,ENE,1.2,-,N/A,,Clear,70,2013-03-29 06:58:00